VOYAGER:1:PRINTED,ON:,24-OCT-01:13:05:22:GROUP29
START_TIME,STOP_TIME,SECTOR,SCAN_DIR,P1FLUX,P1UNC,P10FLUX,P10UNC,P11FLUX,P11UNC,M6FLUX,M6UNC,M7FLUX,M7UNC
1979-03-18 00:05:43.610 ,1979-03-18 00:06:07.610 ,9,0,1.75,1.24,0.000E+00,0.000E+00,9.372E-02,4.686E-02,0.000E+00,0.000E+00,0.000E+00,0.000E+00
1979-03-18 00:05:56.210 ,1979-03-18 00:06:02.150 ,7,-1,0.000E+00,0.000E+00,0.000E+00,0.000E+00,4.686E-02,3.313E-02,0.000E+00,0.000E+00,0.000E+00,0.000E+00
1979-03-18 00:06:02.590 ,1979-03-18 00:06:26.150 ,6,-1,0.830,0.587,1.092E-02,1.092E-02,3.517E-02,1.435E-02,0.000E+00,0.000E+00,0.000E+00,0.000E+00
1979-03-18 00:06:26.590 ,1979-03-18 00:06:50.150 ,5,-1,0.000E+00,0.000E+00,0.000E+00,0.000E+00,4.686E-02,2.343E-02,0.000E+00,0.000E+00,0.000E+00,0.000E+00
1979-03-18 00:06:50.590 ,1979-03-18 00:07:14.150 ,4,-1,0.000E+00,0.000E+00,0.000E+00,0.000E+00,5.857E-02,2.619E-02,0.000E+00,0.000E+00,0.000E+00,0.000E+00
1979-03-18 00:07:14.590 ,1979-03-18 00:07:38.150 ,3,-1,0.507,0.507,0.000E+00,0.000E+00,3.514E-02,2.029E-02,0.000E+00,0.000E+00,0.000E+00,0.000E+00
1979-03-18 00:07:38.590 ,1979-03-18 00:08:02.150 ,2,-1,1.01,0.717,0.000E+00,0.000E+00,7.029E-02,2.869E-02,0.000E+00,0.000E+00,0.000E+00,0.000E+00
1979-03-18 00:08:02.210 ,1979-03-18 00:08:26.590 ,1,-1,0.000E+00,0.000E+00,0.000E+00,0.000E+00,8.200E-02,3.098E-02,0.000E+00,0.000E+00,0.000E+00,0.000E+00
1979-03-18 00:08:26.590 ,1979-03-18 00:08:50.150 ,1,1,0.830,0.587,9.573E-03,9.573E-03,4.218E-02,1.491E-02,0.000E+00,0.000E+00,0.000E+00,0.000E+00
1979-03-18 00:08:50.590 ,1979-03-18 00:09:14.150 ,2,1,0.000E+00,0.000E+00,0.000E+00,0.000E+00,7.029E-02,2.869E-02,0.000E+00,0.000E+00,0.000E+00,0.000E+00
1979-03-18 00:09:14.590 ,1979-03-18 00:09:38.150 ,3,1,1.01,0.717,0.000E+00,0.000E+00,0.117,3.703E-02,0.000E+00,0.000E+00,0.000E+00,0.000E+00
1979-03-18 00:09:38.590 ,1979-03-18 00:10:02.150 ,4,1,0.507,0.507,0.000E+00,0.000E+00,9.372E-02,3.312E-02,0.000E+00,0.000E+00,0.000E+00,0.000E+00
1979-03-18 00:10:02.590 ,1979-03-18 00:10:26.150 ,5,1,0.000E+00,0.000E+00,0.000E+00,0.000E+00,4.686E-02,2.343E-02,0.000E+00,0.000E+00,0.000E+00,0.000E+00
1979-03-18 00:10:26.590 ,1979-03-18 00:10:50.150 ,6,1,0.507,0.507,0.000E+00,0.000E+00,5.857E-02,2.619E-02,0.000E+00,0.000E+00,0.000E+00,0.000E+00
1979-03-18 00:10:50.590 ,1979-03-18 00:11:14.150 ,7,1,0.394,0.394,3.268E-02,3.268E-02,0.141,4.057E-02,0.000E+00,0.000E+00,0.000E+00,0.000E+00
1979-03-18 00:11:14.590 ,1979-03-18 00:11:56.150 ,8,1,0.000E+00,0.000E+00,0.000E+00,0.000E+00,6.248E-02,2.208E-02,0.000E+00,0.000E+00,0.000E+00,0.000E+00
1979-03-18 00:11:56.210 ,1979-03-18 00:12:02.150 ,8,-1,0.000E+00,0.000E+00,0.000E+00,0.000E+00,9.372E-02,4.686E-02,0.000E+00,0.000E+00,0.000E+00,0.000E+00
1979-03-18 00:12:02.590 ,1979-03-18 00:12:26.150 ,7,-1,0.000E+00,0.000E+00,9.573E-03,9.573E-03,4.218E-02,1.491E-02,0.000E+00,0.000E+00,0.000E+00,0.000E+00
1979-03-18 00:12:26.590 ,1979-03-18 00:12:50.150 ,6,-1,0.000E+00,0.000E+00,1.861E-02,1.316E-02,8.758E-02,2.124E-02,0.000E+00,0.000E+00,0.000E+00,0.000E+00
1979-03-18 00:12:50.590 ,1979-03-18 00:13:14.150 ,5,-1,1.01,0.717,0.000E+00,0.000E+00,7.029E-02,2.869E-02,0.000E+00,0.000E+00,0.000E+00,0.000E+00
1979-03-18 00:13:14.590 ,1979-03-18 00:13:38.150 ,4,-1,1.01,0.717,0.000E+00,0.000E+00,9.372E-02,3.312E-02,0.000E+00,0.000E+00,0.000E+00,0.000E+00
1979-03-18 00:13:38.590 ,1979-03-18 00:14:02.150 ,3,-1,0.507,0.507,0.000E+00,0.000E+00,9.372E-02,3.312E-02,0.000E+00,0.000E+00,0.000E+00,0.000E+00
1979-03-18 00:14:02.590 ,1979-03-18 00:14:26.150 ,2,-1,0.507,0.507,0.000E+00,0.000E+00,8.200E-02,3.098E-02,0.000E+00,0.000E+00,0.000E+00,0.000E+00
1979-03-18 00:14:26.210 ,1979-03-18 00:14:50.590 ,1,-1,0.000E+00,0.000E+00,0.000E+00,0.000E+00,8.200E-02,3.098E-02,0.000E+00,0.000E+00,0.000E+00,0.000E+00
1979-03-18 00:14:50.590 ,1979-03-18 00:15:14.150 ,1,1,0.000E+00,0.000E+00,0.000E+00,0.000E+00,0.129,3.884E-02,0.000E+00,0.000E+00,0.000E+00,0.000E+00
1979-03-18 00:15:14.590 ,1979-03-18 00:15:38.150 ,2,1,0.000E+00,0.000E+00,0.000E+00,0.000E+00,0.164,4.382E-02,0.000E+00,0.000E+00,0.000E+00,0.000E+00
1979-03-18 00:15:38.590 ,1979-03-18 00:16:02.150 ,3,1,0.507,0.507,0.000E+00,0.000E+00,9.372E-02,3.312E-02,0.000E+00,0.000E+00,0.000E+00,0.000E+00
1979-03-18 00:16:02.590 ,1979-03-18 00:16:26.150 ,4,1,0.000E+00,0.000E+00,0.000E+00,0.000E+00,9.372E-02,3.312E-02,0.000E+00,0.000E+00,0.000E+00,0.000E+00
1979-03-18 00:16:26.590 ,1979-03-18 00:16:50.150 ,5,1,0.000E+00,0.000E+00,0.000E+00,0.000E+00,9.372E-02,3.312E-02,0.000E+00,0.000E+00,0.000E+00,0.000E+00
1979-03-18 00:16:50.590 ,1979-03-18 00:17:14.150 ,6,1,0.000E+00,0.000E+00,1.018E-02,1.018E-02,3.880E-02,1.466E-02,0.000E+00,0.000E+00,0.000E+00,0.000E+00
1979-03-18 00:17:14.590 ,1979-03-18 00:17:38.150 ,7,1,0.000E+00,0.000E+00,3.420E-02,2.418E-02,3.296E-02,1.648E-02,0.000E+00,0.000E+00,0.000E+00,0.000E+00
1979-03-18 00:17:38.590 ,1979-03-18 00:18:20.150 ,8,1,0.000E+00,0.000E+00,0.000E+00,0.000E+00,5.467E-02,2.065E-02,0.000E+00,0.000E+00,0.000E+00,0.000E+00
1979-03-18 00:18:20.210 ,1979-03-18 00:18:26.150 ,8,-1,0.000E+00,0.000E+00,0.000E+00,0.000E+00,7.029E-02,4.058E-02,0.000E+00,0.000E+00,0.000E+00,0.000E+00
1979-03-18 00:18:26.590 ,1979-03-18 00:18:50.150 ,7,-1,0.507,0.507,0.000E+00,0.000E+00,0.117,3.703E-02,7.783E-02,7.783E-02,0.000E+00,0.000E+00
1979-03-18 00:18:50.590 ,1979-03-18 00:19:14.150 ,6,-1,0.507,0.507,0.000E+00,0.000E+00,9.372E-02,3.312E-02,0.000E+00,0.000E+00,0.000E+00,0.000E+00
1979-03-18 00:19:14.590 ,1979-03-18 00:19:38.150 ,5,-1,0.000E+00,0.000E+00,3.268E-02,3.268E-02,0.164,4.382E-02,0.000E+00,0.000E+00,0.000E+00,0.000E+00
1979-03-18 00:19:38.590 ,1979-03-18 00:20:02.150 ,4,-1,0.000E+00,0.000E+00,0.000E+00,0.000E+00,0.105,3.514E-02,0.000E+00,0.000E+00,0.000E+00,0.000E+00
1979-03-18 00:20:02.590 ,1979-03-18 00:20:26.150 ,3,-1,0.830,0.587,3.268E-02,3.268E-02,0.117,3.703E-02,0.000E+00,0.000E+00,0.000E+00,0.000E+00
1979-03-18 00:20:26.590 ,1979-03-18 00:20:50.150 ,2,-1,0.507,0.507,0.000E+00,0.000E+00,0.129,3.884E-02,0.000E+00,0.000E+00,0.000E+00,0.000E+00
1979-03-18 00:20:50.210 ,1979-03-18 00:21:14.590 ,1,-1,0.000E+00,0.000E+00,0.000E+00,0.000E+00,0.187,4.686E-02,0.000E+00,0.000E+00,0.000E+00,0.000E+00
1979-03-18 00:21:14.590 ,1979-03-18 00:21:38.150 ,1,1,0.000E+00,0.000E+00,9.058E-03,9.058E-03,4.536E-02,1.512E-02,0.000E+00,0.000E+00,0.000E+00,0.000E+00
1979-03-18 00:21:38.590 ,1979-03-18 00:22:02.150 ,2,1,0.394,0.394,3.268E-02,3.268E-02,0.152,4.224E-02,0.000E+00,0.000E+00,0.000E+00,0.000E+00
1979-03-18 00:22:02.590 ,1979-03-18 00:22:26.150 ,3,1,0.000E+00,0.000E+00,0.000E+00,0.000E+00,8.200E-02,3.098E-02,0.000E+00,0.000E+00,0.000E+00,0.000E+00
1979-03-18 00:22:26.590 ,1979-03-18 00:22:50.150 ,4,1,0.507,0.507,0.000E+00,0.000E+00,9.372E-02,3.312E-02,0.000E+00,0.000E+00,0.000E+00,0.000E+00
1979-03-18 00:22:50.590 ,1979-03-18 00:23:14.150 ,5,1,1.01,0.717,0.000E+00,0.000E+00,0.117,3.703E-02,0.000E+00,0.000E+00,0.000E+00,0.000E+00
1979-03-18 00:23:14.590 ,1979-03-18 00:23:38.150 ,6,1,1.01,0.717,0.000E+00,0.000E+00,8.200E-02,3.098E-02,0.000E+00,0.000E+00,0.000E+00,0.000E+00
1979-03-18 00:23:38.590 ,1979-03-18 00:24:02.150 ,7,1,0.507,0.507,0.000E+00,0.000E+00,8.200E-02,3.098E-02,0.000E+00,0.000E+00,0.000E+00,0.000E+00
1979-03-18 00:24:02.590 ,1979-03-18 00:24:44.150 ,8,1,0.292,0.292,0.000E+00,0.000E+00,6.248E-02,2.208E-02,0.000E+00,0.000E+00,0.000E+00,0.000E+00
1979-03-18 00:24:44.210 ,1979-03-18 00:24:50.150 ,8,-1,0.000E+00,0.000E+00,0.000E+00,0.000E+00,7.029E-02,4.058E-02,0.000E+00,0.000E+00,0.000E+00,0.000E+00
1979-03-18 00:24:50.590 ,1979-03-18 00:25:14.150 ,7,-1,0.000E+00,0.000E+00,3.268E-02,3.268E-02,0.199,4.829E-02,0.000E+00,0.000E+00,0.000E+00,0.000E+00
1979-03-18 00:25:14.590 ,1979-03-18 00:25:38.150 ,6,-1,1.01,0.717,0.000E+00,0.000E+00,0.176,4.536E-02,0.000E+00,0.000E+00,0.000E+00,0.000E+00
1979-03-18 00:25:38.590 ,1979-03-18 00:26:02.150 ,5,-1,0.373,0.373,2.366E-02,1.673E-02,6.247E-02,1.975E-02,0.000E+00,0.000E+00,0.000E+00,0.000E+00
1979-03-18 00:26:02.590 ,1979-03-18 00:26:26.150 ,4,-1,0.507,0.507,0.000E+00,0.000E+00,9.372E-02,3.312E-02,0.000E+00,0.000E+00,0.000E+00,0.000E+00
1979-03-18 00:26:26.590 ,1979-03-18 00:26:50.150 ,3,-1,0.000E+00,0.000E+00,1.018E-02,1.018E-02,3.880E-02,1.466E-02,0.000E+00,0.000E+00,0.000E+00,0.000E+00
1979-03-18 00:26:50.590 ,1979-03-18 00:27:14.150 ,2,-1,0.830,0.587,1.183E-02,1.183E-02,3.123E-02,1.397E-02,0.000E+00,0.000E+00,0.000E+00,0.000E+00
1979-03-18 00:27:14.210 ,1979-03-18 00:27:38.590 ,1,-1,1.07,1.07,3.386E-02,3.386E-02,7.813E-02,2.255E-02,0.000E+00,0.000E+00,0.000E+00,0.000E+00
1979-03-18 00:27:38.590 ,1979-03-18 00:28:02.150 ,1,1,1.52,0.879,0.000E+00,0.000E+00,9.372E-02,3.312E-02,0.000E+00,0.000E+00,0.000E+00,0.000E+00
1979-03-18 00:28:02.590 ,1979-03-18 00:28:26.150 ,2,1,0.507,0.507,0.000E+00,0.000E+00,0.105,3.514E-02,0.000E+00,0.000E+00,0.000E+00,0.000E+00
1979-03-18 00:28:26.590 ,1979-03-18 00:28:50.150 ,3,1,0.000E+00,0.000E+00,9.573E-03,9.573E-03,4.218E-02,1.491E-02,0.000E+00,0.000E+00,0.000E+00,0.000E+00
1979-03-18 00:28:50.590 ,1979-03-18 00:29:14.150 ,4,1,0.394,0.394,9.058E-03,9.058E-03,4.536E-02,1.512E-02,0.000E+00,0.000E+00,0.000E+00,0.000E+00
1979-03-18 00:29:14.590 ,1979-03-18 00:29:38.150 ,5,1,0.000E+00,0.000E+00,0.000E+00,0.000E+00,0.129,3.884E-02,0.000E+00,0.000E+00,0.000E+00,0.000E+00
1979-03-18 00:29:38.590 ,1979-03-18 00:30:02.150 ,6,1,1.01,0.717,0.000E+00,0.000E+00,4.686E-02,2.343E-02,0.000E+00,0.000E+00,0.000E+00,0.000E+00
1979-03-18 00:30:02.590 ,1979-03-18 00:30:26.150 ,7,1,0.000E+00,0.000E+00,9.573E-03,9.573E-03,4.218E-02,1.491E-02,0.000E+00,0.000E+00,0.000E+00,0.000E+00
1979-03-18 00:30:26.590 ,1979-03-18 00:31:08.150 ,8,1,0.000E+00,0.000E+00,5.882E-03,5.882E-03,2.223E-02,9.073E-03,0.000E+00,0.000E+00,0.000E+00,0.000E+00
1979-03-18 00:31:08.210 ,1979-03-18 00:31:14.150 ,8,-1,0.000E+00,0.000E+00,0.000E+00,0.000E+00,0.000E+00,0.000E+00,0.000E+00,0.000E+00,0.000E+00,0.000E+00
1979-03-18 00:31:14.590 ,1979-03-18 00:31:38.150 ,7,-1,0.000E+00,0.000E+00,0.000E+00,0.000E+00,0.105,3.514E-02,0.000E+00,0.000E+00,0.000E+00,0.000E+00
1979-03-18 00:31:38.590 ,1979-03-18 00:32:02.150 ,6,-1,0.000E+00,0.000E+00,0.000E+00,0.000E+00,8.200E-02,3.098E-02,0.000E+00,0.000E+00,0.000E+00,0.000E+00
1979-03-18 00:32:02.590 ,1979-03-18 00:32:26.150 ,5,-1,0.394,0.394,3.268E-02,3.268E-02,0.117,3.703E-02,0.000E+00,0.000E+00,0.000E+00,0.000E+00
1979-03-18 00:32:26.590 ,1979-03-18 00:32:50.150 ,4,-1,0.830,0.587,1.018E-02,1.018E-02,3.880E-02,1.466E-02,0.000E+00,0.000E+00,0.000E+00,0.000E+00
1979-03-18 00:32:50.590 ,1979-03-18 00:33:14.150 ,3,-1,0.394,0.394,1.183E-02,1.183E-02,3.123E-02,1.397E-02,0.000E+00,0.000E+00,0.000E+00,0.000E+00
1979-03-18 00:33:14.590 ,1979-03-18 00:33:38.150 ,2,-1,0.000E+00,0.000E+00,0.000E+00,0.000E+00,7.029E-02,2.869E-02,0.000E+00,0.000E+00,0.000E+00,0.000E+00
1979-03-18 00:33:38.210 ,1979-03-18 00:34:02.590 ,1,-1,1.38,1.38,0.000E+00,0.000E+00,3.514E-02,2.029E-02,0.000E+00,0.000E+00,0.000E+00,0.000E+00
1979-03-18 00:34:02.590 ,1979-03-18 00:34:26.150 ,1,1,0.507,0.507,0.000E+00,0.000E+00,0.141,4.057E-02,0.000E+00,0.000E+00,0.000E+00,0.000E+00
1979-03-18 00:34:26.590 ,1979-03-18 00:34:50.150 ,2,1,1.28,0.740,9.058E-03,9.058E-03,4.536E-02,1.512E-02,0.000E+00,0.000E+00,0.000E+00,0.000E+00
1979-03-18 00:34:50.590 ,1979-03-18 00:35:14.150 ,3,1,0.394,0.394,3.268E-02,3.268E-02,0.152,4.224E-02,0.000E+00,0.000E+00,0.000E+00,0.000E+00
1979-03-18 00:35:14.590 ,1979-03-18 00:35:38.150 ,4,1,0.000E+00,0.000E+00,0.000E+00,0.000E+00,9.372E-02,3.312E-02,0.000E+00,0.000E+00,0.000E+00,0.000E+00
1979-03-18 00:35:38.590 ,1979-03-18 00:36:02.150 ,5,1,0.507,0.507,0.000E+00,0.000E+00,0.152,4.224E-02,0.000E+00,0.000E+00,0.000E+00,0.000E+00
1979-03-18 00:36:02.590 ,1979-03-18 00:36:26.150 ,6,1,0.000E+00,0.000E+00,0.000E+00,0.000E+00,8.200E-02,3.098E-02,0.000E+00,0.000E+00,0.000E+00,0.000E+00
1979-03-18 00:36:26.590 ,1979-03-18 00:36:50.150 ,7,1,0.000E+00,0.000E+00,0.000E+00,0.000E+00,4.686E-02,2.343E-02,0.000E+00,0.000E+00,0.000E+00,0.000E+00
1979-03-18 00:36:50.590 ,1979-03-18 00:37:32.150 ,8,1,0.000E+00,0.000E+00,0.000E+00,0.000E+00,3.905E-02,1.746E-02,0.000E+00,0.000E+00,0.000E+00,0.000E+00
1979-03-18 00:37:32.210 ,1979-03-18 00:37:38.150 ,8,-1,0.000E+00,0.000E+00,0.000E+00,0.000E+00,0.000E+00,0.000E+00,0.000E+00,0.000E+00,0.000E+00,0.000E+00
1979-03-18 00:37:38.590 ,1979-03-18 00:38:02.150 ,7,-1,0.507,0.507,0.000E+00,0.000E+00,8.200E-02,3.098E-02,0.000E+00,0.000E+00,0.000E+00,0.000E+00
1979-03-18 00:38:02.590 ,1979-03-18 00:38:26.150 ,6,-1,0.000E+00,0.000E+00,0.000E+00,0.000E+00,7.029E-02,2.869E-02,0.000E+00,0.000E+00,0.000E+00,0.000E+00
1979-03-18 00:38:26.590 ,1979-03-18 00:38:50.150 ,5,-1,0.394,0.394,1.092E-02,1.092E-02,3.517E-02,1.435E-02,0.000E+00,0.000E+00,0.000E+00,0.000E+00
1979-03-18 00:38:50.590 ,1979-03-18 00:39:14.150 ,4,-1,0.507,0.507,0.000E+00,0.000E+00,5.857E-02,2.619E-02,0.000E+00,0.000E+00,0.000E+00,0.000E+00
1979-03-18 00:39:14.590 ,1979-03-18 00:39:38.150 ,3,-1,0.000E+00,0.000E+00,0.000E+00,0.000E+00,9.372E-02,3.312E-02,0.000E+00,0.000E+00,0.000E+00,0.000E+00
1979-03-18 00:39:38.590 ,1979-03-18 00:40:02.150 ,2,-1,0.000E+00,0.000E+00,0.000E+00,0.000E+00,9.372E-02,3.312E-02,0.000E+00,0.000E+00,0.000E+00,0.000E+00
1979-03-18 00:40:02.210 ,1979-03-18 00:40:26.590 ,1,-1,0.000E+00,0.000E+00,0.000E+00,0.000E+00,7.029E-02,2.869E-02,0.000E+00,0.000E+00,0.000E+00,0.000E+00
1979-03-18 00:40:26.590 ,1979-03-18 00:40:50.150 ,1,1,0.787,0.557,3.145E-02,2.223E-02,3.878E-02,1.734E-02,0.000E+00,0.000E+00,0.000E+00,0.000E+00
1979-03-18 00:40:50.590 ,1979-03-18 00:41:14.150 ,2,1,0.000E+00,0.000E+00,0.000E+00,0.000E+00,0.164,4.382E-02,0.000E+00,0.000E+00,0.000E+00,0.000E+00
1979-03-18 00:41:14.590 ,1979-03-18 00:41:38.150 ,3,1,0.000E+00,0.000E+00,1.018E-02,1.018E-02,3.880E-02,1.466E-02,0.000E+00,0.000E+00,0.000E+00,0.000E+00
1979-03-18 00:41:38.590 ,1979-03-18 00:42:02.150 ,4,1,0.000E+00,0.000E+00,0.000E+00,0.000E+00,9.372E-02,3.312E-02,0.000E+00,0.000E+00,0.000E+00,0.000E+00
1979-03-18 00:42:02.590 ,1979-03-18 00:42:26.150 ,5,1,1.01,0.717,0.000E+00,0.000E+00,5.857E-02,2.619E-02,0.000E+00,0.000E+00,0.000E+00,0.000E+00
1979-03-18 00:42:26.590 ,1979-03-18 00:42:50.150 ,6,1,0.394,0.394,1.464E-02,1.464E-02,2.207E-02,1.274E-02,0.000E+00,0.000E+00,0.000E+00,0.000E+00
1979-03-18 00:42:50.590 ,1979-03-18 00:43:14.150 ,7,1,0.507,0.507,0.000E+00,0.000E+00,9.372E-02,3.312E-02,0.000E+00,0.000E+00,0.000E+00,0.000E+00
1979-03-18 00:43:14.590 ,1979-03-18 00:43:56.150 ,8,1,0.000E+00,0.000E+00,0.000E+00,0.000E+00,2.343E-02,1.353E-02,0.000E+00,0.000E+00,0.000E+00,0.000E+00
1979-03-18 00:44:44.210 ,1979-03-18 00:45:08.210 ,9,0,0.000E+00,0.000E+00,0.000E+00,0.000E+00,4.686E-02,2.095E-02,0.000E+00,0.000E+00,0.000E+00,0.000E+00
1979-03-18 00:45:08.210 ,1979-03-18 00:45:14.150 ,5,-1,1.93,1.93,0.000E+00,0.000E+00,0.117,5.239E-02,0.000E+00,0.000E+00,0.000E+00,0.000E+00
1979-03-18 00:45:14.590 ,1979-03-18 00:45:38.150 ,4,-1,0.000E+00,0.000E+00,0.000E+00,0.000E+00,2.343E-02,1.656E-02,0.000E+00,0.000E+00,0.000E+00,0.000E+00
1979-03-18 00:45:38.590 ,1979-03-18 00:46:02.150 ,3,-1,0.000E+00,0.000E+00,0.000E+00,0.000E+00,8.200E-02,3.098E-02,0.000E+00,0.000E+00,0.000E+00,0.000E+00
1979-03-18 00:46:02.590 ,1979-03-18 00:46:26.150 ,2,-1,0.000E+00,0.000E+00,0.000E+00,0.000E+00,4.686E-02,2.343E-02,0.000E+00,0.000E+00,0.000E+00,0.000E+00
1979-03-18 00:46:26.210 ,1979-03-18 00:46:50.590 ,1,-1,0.000E+00,0.000E+00,0.000E+00,0.000E+00,0.141,4.057E-02,0.000E+00,0.000E+00,0.000E+00,0.000E+00
1979-03-18 00:46:50.590 ,1979-03-18 00:47:14.150 ,1,1,0.000E+00,0.000E+00,6.508E-02,3.757E-02,2.897E-02,1.672E-02,0.000E+00,0.000E+00,0.000E+00,0.000E+00
1979-03-18 00:47:14.590 ,1979-03-18 00:47:38.150 ,2,1,0.507,0.507,0.000E+00,0.000E+00,7.029E-02,2.869E-02,0.000E+00,0.000E+00,0.000E+00,0.000E+00
1979-03-18 00:47:38.590 ,1979-03-18 00:48:02.150 ,3,1,0.507,0.507,0.000E+00,0.000E+00,4.686E-02,2.343E-02,0.784,0.784,0.000E+00,0.000E+00
1979-03-18 00:48:02.590 ,1979-03-18 00:48:26.150 ,4,1,0.000E+00,0.000E+00,0.000E+00,0.000E+00,7.029E-02,2.869E-02,0.000E+00,0.000E+00,0.000E+00,0.000E+00
1979-03-18 00:48:26.590 ,1979-03-18 00:48:50.150 ,5,1,1.01,0.717,0.000E+00,0.000E+00,7.029E-02,2.869E-02,0.000E+00,0.000E+00,0.000E+00,0.000E+00
1979-03-18 00:48:50.590 ,1979-03-18 00:49:14.150 ,6,1,0.507,0.507,0.000E+00,0.000E+00,7.029E-02,2.869E-02,0.000E+00,0.000E+00,0.000E+00,0.000E+00
1979-03-18 00:49:14.590 ,1979-03-18 00:49:38.150 ,7,1,0.000E+00,0.000E+00,0.000E+00,0.000E+00,9.372E-02,3.312E-02,0.000E+00,0.000E+00,0.000E+00,0.000E+00
1979-03-18 00:49:38.590 ,1979-03-18 00:50:20.150 ,8,1,0.000E+00,0.000E+00,0.000E+00,0.000E+00,2.343E-02,1.353E-02,0.000E+00,0.000E+00,0.000E+00,0.000E+00
1979-03-18 00:50:20.210 ,1979-03-18 00:50:26.150 ,8,-1,0.000E+00,0.000E+00,0.000E+00,0.000E+00,2.343E-02,2.343E-02,0.000E+00,0.000E+00,0.000E+00,0.000E+00
1979-03-18 00:50:26.590 ,1979-03-18 00:50:50.150 ,7,-1,0.507,0.507,0.000E+00,0.000E+00,3.514E-02,2.029E-02,0.000E+00,0.000E+00,0.000E+00,0.000E+00
1979-03-18 00:50:50.590 ,1979-03-18 00:51:14.150 ,6,-1,0.000E+00,0.000E+00,0.000E+00,0.000E+00,0.199,4.829E-02,0.000E+00,0.000E+00,0.000E+00,0.000E+00
1979-03-18 00:51:14.590 ,1979-03-18 00:51:38.150 ,5,-1,0.000E+00,0.000E+00,0.000E+00,0.000E+00,0.105,3.514E-02,0.000E+00,0.000E+00,0.000E+00,0.000E+00
1979-03-18 00:51:38.590 ,1979-03-18 00:52:02.150 ,4,-1,0.507,0.507,0.000E+00,0.000E+00,1.171E-02,1.171E-02,0.000E+00,0.000E+00,0.000E+00,0.000E+00
1979-03-18 00:52:02.590 ,1979-03-18 00:52:26.150 ,3,-1,0.000E+00,0.000E+00,0.000E+00,0.000E+00,9.372E-02,3.312E-02,0.000E+00,0.000E+00,0.000E+00,0.000E+00
1979-03-18 00:52:26.590 ,1979-03-18 00:52:50.150 ,2,-1,1.01,0.717,0.000E+00,0.000E+00,5.857E-02,2.619E-02,0.000E+00,0.000E+00,0.000E+00,0.000E+00
1979-03-18 00:52:50.210 ,1979-03-18 00:53:14.590 ,1,-1,0.000E+00,0.000E+00,3.816E-02,3.816E-02,6.423E-02,2.141E-02,0.000E+00,0.000E+00,0.000E+00,0.000E+00
1979-03-18 00:53:14.590 ,1979-03-18 00:53:38.150 ,1,1,0.000E+00,0.000E+00,1.464E-02,1.464E-02,2.207E-02,1.274E-02,0.000E+00,0.000E+00,0.000E+00,0.000E+00
1979-03-18 00:53:38.590 ,1979-03-18 00:54:02.150 ,2,1,0.507,0.507,0.000E+00,0.000E+00,3.514E-02,2.029E-02,0.784,0.784,0.000E+00,0.000E+00
1979-03-18 00:54:02.590 ,1979-03-18 00:54:26.150 ,3,1,0.000E+00,0.000E+00,0.000E+00,0.000E+00,4.686E-02,2.343E-02,0.000E+00,0.000E+00,0.000E+00,0.000E+00
1979-03-18 00:54:26.590 ,1979-03-18 00:54:50.150 ,4,1,0.373,0.373,2.476E-02,1.751E-02,5.826E-02,1.942E-02,0.000E+00,0.000E+00,0.000E+00,0.000E+00
1979-03-18 00:54:50.590 ,1979-03-18 00:55:14.150 ,5,1,0.000E+00,0.000E+00,0.000E+00,0.000E+00,0.129,3.884E-02,0.000E+00,0.000E+00,0.000E+00,0.000E+00
1979-03-18 00:55:14.590 ,1979-03-18 00:55:38.150 ,6,1,0.507,0.507,0.000E+00,0.000E+00,5.857E-02,2.619E-02,0.000E+00,0.000E+00,0.000E+00,0.000E+00
1979-03-18 00:55:38.590 ,1979-03-18 00:56:02.150 ,7,1,0.394,0.394,9.573E-03,9.573E-03,4.218E-02,1.491E-02,0.000E+00,0.000E+00,0.000E+00,0.000E+00
1979-03-18 00:56:02.590 ,1979-03-18 00:56:44.150 ,8,1,0.000E+00,0.000E+00,0.000E+00,0.000E+00,4.686E-02,1.912E-02,0.000E+00,0.000E+00,0.000E+00,0.000E+00
1979-03-18 00:56:44.210 ,1979-03-18 00:56:50.150 ,8,-1,0.000E+00,0.000E+00,0.000E+00,0.000E+00,9.372E-02,4.686E-02,0.000E+00,0.000E+00,0.000E+00,0.000E+00
1979-03-18 00:56:50.590 ,1979-03-18 00:57:14.150 ,7,-1,0.787,0.557,2.183E-02,1.544E-02,7.033E-02,2.030E-02,0.000E+00,0.000E+00,0.000E+00,0.000E+00
1979-03-18 00:57:14.590 ,1979-03-18 00:57:38.150 ,6,-1,0.507,0.507,0.000E+00,0.000E+00,4.686E-02,2.343E-02,0.000E+00,0.000E+00,0.000E+00,0.000E+00
1979-03-18 00:57:38.590 ,1979-03-18 00:58:02.150 ,5,-1,0.507,0.507,0.000E+00,0.000E+00,7.029E-02,2.869E-02,0.000E+00,0.000E+00,0.000E+00,0.000E+00
1979-03-18 00:58:02.590 ,1979-03-18 00:58:26.150 ,4,-1,0.000E+00,0.000E+00,1.301E-02,1.301E-02,2.691E-02,1.346E-02,0.000E+00,0.000E+00,0.000E+00,0.000E+00
1979-03-18 00:58:26.590 ,1979-03-18 00:58:50.150 ,3,-1,0.507,0.507,0.000E+00,0.000E+00,3.514E-02,2.029E-02,0.000E+00,0.000E+00,0.000E+00,0.000E+00
1979-03-18 00:58:50.590 ,1979-03-18 00:59:14.150 ,2,-1,0.000E+00,0.000E+00,1.018E-02,1.018E-02,3.880E-02,1.466E-02,0.000E+00,0.000E+00,0.000E+00,0.000E+00
1979-03-18 00:59:14.210 ,1979-03-18 00:59:38.590 ,1,-1,0.000E+00,0.000E+00,0.000E+00,0.000E+00,8.200E-02,3.098E-02,0.000E+00,0.000E+00,0.000E+00,0.000E+00
1979-03-18 00:59:38.590 ,1979-03-18 00:00:02.150 ,1,1,1.52,0.879,0.000E+00,0.000E+00,4.686E-02,2.343E-02,0.000E+00,0.000E+00,0.000E+00,0.000E+00
1979-03-18 01:00:02.590 ,1979-03-18 01:00:26.150 ,2,1,0.507,0.507,0.000E+00,0.000E+00,0.105,3.514E-02,0.000E+00,0.000E+00,0.000E+00,0.000E+00
1979-03-18 01:00:26.590 ,1979-03-18 01:00:50.150 ,3,1,0.000E+00,0.000E+00,0.000E+00,0.000E+00,9.372E-02,3.312E-02,0.000E+00,0.000E+00,0.000E+00,0.000E+00
1979-03-18 01:00:50.590 ,1979-03-18 01:01:14.150 ,4,1,0.000E+00,0.000E+00,0.000E+00,0.000E+00,5.857E-02,2.619E-02,0.000E+00,0.000E+00,0.000E+00,0.000E+00
1979-03-18 01:01:14.590 ,1979-03-18 01:01:38.150 ,5,1,0.394,0.394,3.268E-02,3.268E-02,0.117,3.703E-02,0.000E+00,0.000E+00,0.000E+00,0.000E+00
1979-03-18 01:01:38.590 ,1979-03-18 01:02:02.150 ,6,1,0.000E+00,0.000E+00,0.000E+00,0.000E+00,7.029E-02,2.869E-02,0.000E+00,0.000E+00,0.000E+00,0.000E+00
1979-03-18 01:02:02.590 ,1979-03-18 01:02:26.150 ,7,1,0.507,0.507,0.000E+00,0.000E+00,4.686E-02,2.343E-02,0.000E+00,0.000E+00,0.000E+00,0.000E+00
1979-03-18 01:02:26.590 ,1979-03-18 01:03:08.150 ,8,1,0.000E+00,0.000E+00,0.000E+00,0.000E+00,3.124E-02,1.562E-02,0.000E+00,0.000E+00,0.000E+00,0.000E+00
1979-03-18 01:03:08.210 ,1979-03-18 01:03:14.150 ,8,-1,0.000E+00,0.000E+00,0.000E+00,0.000E+00,0.000E+00,0.000E+00,0.000E+00,0.000E+00,0.000E+00,0.000E+00
1979-03-18 01:03:14.590 ,1979-03-18 01:03:38.150 ,7,-1,0.000E+00,0.000E+00,0.000E+00,0.000E+00,0.152,4.224E-02,0.000E+00,0.000E+00,0.000E+00,0.000E+00
1979-03-18 01:03:38.590 ,1979-03-18 01:04:02.150 ,6,-1,0.507,0.507,0.000E+00,0.000E+00,8.200E-02,3.098E-02,0.000E+00,0.000E+00,0.000E+00,0.000E+00
1979-03-18 01:04:02.590 ,1979-03-18 01:04:26.150 ,5,-1,0.000E+00,0.000E+00,0.000E+00,0.000E+00,8.200E-02,3.098E-02,0.000E+00,0.000E+00,0.000E+00,0.000E+00
1979-03-18 01:04:26.590 ,1979-03-18 01:04:50.150 ,4,-1,0.000E+00,0.000E+00,0.000E+00,0.000E+00,5.857E-02,2.619E-02,0.000E+00,0.000E+00,0.000E+00,0.000E+00
1979-03-18 01:04:50.590 ,1979-03-18 01:05:14.150 ,3,-1,0.000E+00,0.000E+00,1.092E-02,1.092E-02,3.517E-02,1.435E-02,0.000E+00,0.000E+00,0.000E+00,0.000E+00
1979-03-18 01:05:14.590 ,1979-03-18 01:05:38.150 ,2,-1,0.000E+00,0.000E+00,0.000E+00,0.000E+00,8.200E-02,3.098E-02,0.000E+00,0.000E+00,0.000E+00,0.000E+00
1979-03-18 01:05:38.210 ,1979-03-18 01:06:02.590 ,1,-1,0.000E+00,0.000E+00,0.000E+00,0.000E+00,0.117,3.703E-02,0.000E+00,0.000E+00,0.000E+00,0.000E+00
1979-03-18 01:06:02.590 ,1979-03-18 01:06:26.150 ,1,1,0.507,0.507,0.000E+00,0.000E+00,7.029E-02,2.869E-02,0.000E+00,0.000E+00,0.000E+00,0.000E+00
1979-03-18 01:06:26.590 ,1979-03-18 01:06:50.150 ,2,1,0.000E+00,0.000E+00,0.000E+00,0.000E+00,0.152,4.224E-02,0.000E+00,0.000E+00,0.000E+00,0.000E+00
1979-03-18 01:06:50.590 ,1979-03-18 01:07:14.150 ,3,1,0.507,0.507,0.000E+00,0.000E+00,0.105,3.514E-02,0.000E+00,0.000E+00,0.000E+00,0.000E+00
1979-03-18 01:07:14.590 ,1979-03-18 01:07:38.150 ,4,1,0.000E+00,0.000E+00,0.000E+00,0.000E+00,5.857E-02,2.619E-02,0.000E+00,0.000E+00,0.000E+00,0.000E+00
1979-03-18 01:07:38.590 ,1979-03-18 01:08:02.150 ,5,1,0.507,0.507,0.000E+00,0.000E+00,0.152,4.224E-02,0.000E+00,0.000E+00,0.000E+00,0.000E+00
1979-03-18 01:08:02.590 ,1979-03-18 01:08:26.150 ,6,1,0.000E+00,0.000E+00,3.268E-02,3.268E-02,0.141,4.057E-02,0.000E+00,0.000E+00,0.000E+00,0.000E+00
1979-03-18 01:08:26.590 ,1979-03-18 01:08:50.150 ,7,1,0.373,0.373,2.927E-02,2.070E-02,4.414E-02,1.801E-02,0.000E+00,0.000E+00,0.000E+00,0.000E+00
1979-03-18 01:08:50.590 ,1979-03-18 01:09:32.150 ,8,1,0.000E+00,0.000E+00,0.000E+00,0.000E+00,7.810E-02,2.469E-02,0.000E+00,0.000E+00,0.000E+00,0.000E+00